Location: Chavenne
(46.6022°N, 3.2951°E)
Time: 11:28:37
(UTC+00:00)

ATLAS CENTAUR R/B - Pass Details

Date: 09 April 2020
Orbit: 471 x 675 km, 64.7° (Epoch: 01 June)

Event Time Altitude Azimuth Distance (km) Brightness Sun altitude
Rises 21:54:52 0° 320° (NW) 2,651 6.0 -29.8°
Reaches altitude 10° 21:57:07 10° 317° (NW) 1,729 4.7 -30.0°
Enters shadow 21:58:37 22° 311° (NW) 1,141 3.5 -30.2°
